Regional Weather Roundup
Issued by NWS Sioux Falls, SD

Home | Current Version | Previous Version | Graphics & Text | Print | Product List | Glossary On
Versions: 1 2 3 4 5 6 7 8 9 10 11 12 13 14 15 16 17 18 19 20 21 22 23 24 25 26 27 28 29 30 31 32 33 34 35 36 37 38 39 40 41 42 43 44 45 46 47 48 49 50
000
ASUS43 KFSD 241010
RWRFSD

WEATHER ROUNDUP FOR SE SOUTH DAKOTA/SW MINNESOTA/NW IOWA
NATIONAL WEATHER SERVICE SIOUX FALLS SD
400 AM CST FRI FEB 24 2017

NOTE: "FAIR" INDICATES FEW OR NO CLOUDS BELOW 12,000 FEET WITH NO
SIGNIFICANT WEATHER AND OR OBSTRUCTIONS TO VISIBILITY.


SDZ038>040-050-052>070-241100-
SOUTHEAST SOUTH DAKOTA

CITY           SKY/WX    TMP DP  RH WIND       PRES   REMARKS
BROOKINGS      CLOUDY    21  17  84 N24G31    29.87S WCI   4
CHAMBERLAIN    CLOUDY    24  18  78 N22G29    29.97S WCI   8
HURON          CLOUDY    21  15  78 N21G29    29.98R WCI   5
MADISON        CLOUDY    21  21 100 N23G35    29.87R WCI   5
MITCHELL       CLOUDY    24  19  81 N23G35    29.93F WCI   9
SIOUX FALLS    CLOUDY    25  22  88 N23G32    29.83S FOG     WCI  10
WINNER         CLOUDY    23  17  78 N22       29.96R WCI   8
YANKTON        CLOUDY   N/A N/A N/A N22G30    29.83S
$$

MNZ071-072-080-081-089-090-097-098-241100-
SOUTHWEST MINNESOTA

CITY           SKY/WX    TMP DP  RH WIND       PRES   REMARKS
FAIRMONT       LGT SNOW  25  24  96 N18G30    29.73F VSB 1   WCI  11
JACKSON        LGT SNOW  25  21  86 N28G35    29.73F WCI   8
LUVERNE        CLOUDY    27  19  74 N20G32    29.81R HAZE    WCI  13
MARSHALL       CLOUDY    25  19  78 N23G29    29.87F WCI  10
MONTEVIDEO     CLOUDY    25  18  74 NE20G28   29.95R WCI  11
PIPESTONE      CLOUDY    25  18  74 NE22G31   29.82S WCI  10
REDWOOD FALLS  CLOUDY    26  15  63 N14G28    29.87F WCI  14
TRACY          CLOUDY    27  21  79 N26       29.85F WCI  11
WINDOM         MOCLDY    25  19  80 N28G33    29.77F WCI   8
WORTHINGTON    LGT SNOW  24  21  88 N25G32    29.75S FOG     WCI   8
$$

IAZ001>003-012>014-020>022-031-032-NEZ013-014-SDZ071-241100-
NORTHWEST IOWA

CITY           SKY/WX    TMP DP  RH WIND       PRES   REMARKS
CHEROKEE       CLOUDY    28  26  93 N21G30    29.71R WCI  14
DENISON        HVY RAIN  30  28  93 N22G29    29.60R WCI  17
ESTHERVILLE    FOG       24  24 100 N31G39    29.69F VSB<1/4 WCI   7
LE MARS        LGT RAIN  27  25  93 N18G26    29.76R WCI  13
ORANGE CITY      N/A     25  23  93 N16G29    29.75R WCI  12
SHELDON        MIX PCPN  25  25 100 N28G35    29.74R WCI   8
SIOUX CITY     SNOW      30  26  85 N28G33    29.74R VSB 1/4 WCI  15
SPENCER        CLOUDY    26  23  88 N26G35    29.71R FOG     WCI  10
STORM LAKE     LGT SNOW  27  27 100 N31G38    29.65R WCI  10
$$

ABBREVIATIONS USED IN REMARKS
   TC - TEMPERATURE IN CELSIUS
  WCI - WIND CHILL INDEX
   HX - HEAT INDEX
  VSB - VISIBILITY





USA.gov is the U.S. government's official web portal to all federal, state and local government web resources and services.